{"data":{"norad_id":60026,"intl_designator":"2024-111L","name":"STARLINK-31939","alt_names":[],"object_type":"PAYLOAD","status":"ACTIVE","operator":null,"country":"US","launch_date":"2024-06-08","launch_site_code":"AFETR","launch_vehicle":null,"mission":null,"orbit_class":"UNKNOWN","rcs_meters":null,"size_class":null,"mass_kg":null,"dimensions":null,"purposes":["comms"],"wikipedia_slug":null,"has_3d_model":false,"image_url":null,"decayed_at":null,"tle_current":{"epoch":"2026-09-21T07:52:12.322560Z","epoch_age_seconds":106113,"freshness":"FRESH","line1":"1 60026U 24111L   26264.32792040 -.00000330  00000+0  13610-5 0  9992","line2":"2 60026  53.1605 245.6973 0001405  86.6117 273.5046 15.34386921129002","mean_motion":15.34386921,"eccentricity":0.0001405,"inclination_deg":53.1605,"raan_deg":245.6973,"arg_perigee_deg":86.6117,"mean_anomaly_deg":273.5046,"bstar":1.361e-6,"rev_number":12900,"period_min":93.848558032645,"perigee_km":461.78097051199,"apogee_km":463.70325754303,"semimajor_km":6840.8791140275,"source":"CELESTRAK","updated_at":"2026-09-22T09:00:49.139205Z"}}}